"read_dt","SO2 (ppb)","flags","PMT voltage (V)","lamp voltage (V)","lamp intensity (Hz)","internal temp (C)","react chamber temp (C)","sample flow (l/min)","pres (mmHg)","SO2 bkg (ppb)","SO2 coefficient"
2016-11-26 00:00:00,1567E-3,5C000000,-0724,0833,12046,028.0,045.5,0.437,740.6,01.18,0.508
2016-11-26 00:01:00,1551E-3,5C000000,-0724,0833,12030,028.0,045.5,0.437,740.6,01.18,0.508
2016-11-26 00:02:00,1481E-3,5C000000,-0724,0834,12116,028.0,045.5,0.437,740.6,01.18,0.508
2016-11-26 00:03:00,1504E-3,5C000000,-0724,0834,12064,028.0,045.5,0.437,740.6,01.18,0.508
2016-11-26 00:04:00,1550E-3,5C000000,-0724,0833,12194,028.0,045.5,0.437,740.6,01.18,0.508
2016-11-26 00:05:00,1584E-3,5C000000,-0724,0834,12078,028.0,045.4,0.437,740.6,01.18,0.508
2016-11-26 00:06:00,1554E-3,5C000000,-0724,0833,12178,028.0,045.4,0.437,740.6,01.18,0.508
2016-11-26 00:07:00,1527E-3,5C000000,-0724,0833,12075,028.1,045.4,0.437,740.6,01.18,0.508
2016-11-26 00:08:00,1542E-3,5C000000,-0724,0834,12070,028.0,045.5,0.437,740.6,01.18,0.508
2016-11-26 00:09:00,1648E-3,5C000000,-0724,0833,12158,028.0,045.5,0.437,740.6,01.18,0.508
2016-11-26 00:10:00,1656E-3,5C000000,-0724,0833,12143,028.0,045.5,0.437,740.6,01.18,0.508
2016-11-26 00:11:00,1558E-3,5C000000,-0724,0833,12201,028.0,045.5,0.437,740.6,01.18,0.508
2016-11-26 00:12:00,1573E-3,5C000000,-0724,0834,12201,028.1,045.4,0.437,740.6,01.18,0.508
2016-11-26 00:13:00,1556E-3,5C000000,-0724,0834,12269,028.1,045.4,0.437,740.6,01.18,0.508
2016-11-26 00:14:00,1574E-3,5C000000,-0724,0833,12169,028.1,045.4,0.437,740.6,01.18,0.508
2016-11-26 00:15:00,1736E-3,5C000000,-0724,0832,11959,028.1,045.4,0.437,740.6,01.18,0.508
2016-11-26 00:16:00,1568E-3,5C000000,-0724,0833,11907,028.1,045.4,0.437,740.6,01.18,0.508
2016-11-26 00:17:00,1650E-3,5C000000,-0724,0833,12123,028.1,045.5,0.437,740.6,01.18,0.508
2016-11-26 00:18:00,1681E-3,5C000000,-0724,0833,12038,028.1,045.4,0.437,740.6,01.18,0.508
2016-11-26 00:19:00,1510E-3,5C000000,-0724,0832,12103,028.1,045.4,0.437,740.6,01.18,0.508
2016-11-26 00:20:00,1525E-3,5C000000,-0724,0833,12128,028.1,045.5,0.437,740.6,01.18,0.508
2016-11-26 00:21:00,1518E-3,5C000000,-0724,0833,12167,028.1,045.4,0.437,740.6,01.18,0.508
2016-11-26 00:22:00,1581E-3,5C000000,-0724,0832,12029,028.1,045.4,0.437,740.6,01.18,0.508
2016-11-26 00:23:00,1535E-3,5C000000,-0724,0833,12071,028.1,045.5,0.437,740.6,01.18,0.508
2016-11-26 00:24:00,1621E-3,5C000000,-0724,0832,12063,028.1,045.4,0.436,740.6,01.18,0.508
2016-11-26 00:25:00,1553E-3,5C000000,-0724,0833,12081,028.1,045.4,0.436,740.6,01.18,0.508
2016-11-26 00:26:00,1667E-3,5C000000,-0724,0833,12163,028.1,045.4,0.437,740.6,01.18,0.508
2016-11-26 00:27:00,1586E-3,5C000000,-0724,0833,12141,028.1,045.4,0.437,740.6,01.18,0.508
2016-11-26 00:28:00,1581E-3,5C000000,-0724,0833,12054,028.1,045.4,0.437,740.6,01.18,0.508
2016-11-26 00:29:00,1687E-3,5C000000,-0724,0834,12200,028.1,045.4,0.437,740.6,01.18,0.508
2016-11-26 00:30:00,1733E-3,5C000000,-0724,0834,12165,028.1,045.5,0.437,740.6,01.18,0.508
2016-11-26 00:31:00,1547E-3,5C000000,-0724,0834,12229,028.1,045.4,0.436,740.6,01.18,0.508
2016-11-26 00:32:00,1546E-3,5C000000,-0724,0833,12145,028.1,045.4,0.437,740.6,01.18,0.508
2016-11-26 00:33:00,1600E-3,5C000000,-0724,0834,12085,028.1,045.4,0.437,740.6,01.18,0.508
2016-11-26 00:34:00,1517E-3,5C000000,-0724,0834,12157,028.1,045.4,0.437,740.6,01.18,0.508
2016-11-26 00:35:00,1567E-3,5C000000,-0724,0833,12039,028.1,045.4,0.437,740.6,01.18,0.508
2016-11-26 00:36:00,1594E-3,5C000000,-0724,0832,12058,028.1,045.4,0.437,740.6,01.18,0.508
2016-11-26 00:37:00,1529E-3,5C000000,-0724,0834,12043,028.1,045.5,0.437,740.6,01.18,0.508
2016-11-26 00:38:00,1699E-3,5C000000,-0724,0833,12139,028.1,045.5,0.436,740.6,01.18,0.508
2016-11-26 00:39:00,1656E-3,5C000000,-0724,0833,12022,028.1,045.4,0.436,740.6,01.18,0.508
2016-11-26 00:40:00,1542E-3,5C000000,-0724,0833,12174,028.1,045.5,0.437,740.6,01.18,0.508
2016-11-26 00:41:00,1641E-3,5C000000,-0724,0833,12146,028.1,045.4,0.437,740.6,01.18,0.508
2016-11-26 00:42:00,1593E-3,5C000000,-0724,0833,12033,028.1,045.4,0.437,740.6,01.18,0.508
2016-11-26 00:43:00,1705E-3,5C000000,-0724,0833,12138,028.1,045.4,0.437,740.6,01.18,0.508
2016-11-26 00:44:00,1595E-3,5C000000,-0724,0833,12114,028.1,045.4,0.437,740.6,01.18,0.508
2016-11-26 00:45:00,1613E-3,5C000000,-0724,0833,12100,028.1,045.5,0.436,740.6,01.18,0.508
2016-11-26 00:46:00,1589E-3,5C000000,-0724,0833,12164,028.1,045.5,0.437,740.6,01.18,0.508
2016-11-26 00:47:00,1609E-3,5C000000,-0724,0833,11901,028.1,045.5,0.437,740.6,01.18,0.508
2016-11-26 00:48:00,1753E-3,5C000000,-0724,0833,12104,028.1,045.5,0.437,740.6,01.18,0.508
2016-11-26 00:49:00,1677E-3,5C000000,-0724,0833,12092,028.1,045.5,0.437,740.6,01.18,0.508
2016-11-26 00:50:00,1497E-3,5C000000,-0724,0834,11945,028.1,045.5,0.437,740.6,01.18,0.508
2016-11-26 00:51:00,1593E-3,5C000000,-0724,0834,12032,028.1,045.4,0.436,740.6,01.18,0.508
2016-11-26 00:52:00,1612E-3,5C000000,-0724,0834,12135,028.1,045.4,0.436,740.6,01.18,0.508
2016-11-26 00:53:00,1613E-3,5C000000,-0724,0833,12009,028.2,045.4,0.437,740.6,01.18,0.508
2016-11-26 00:54:00,1688E-3,5C000000,-0724,0833,12143,028.2,045.4,0.437,740.6,01.18,0.508
2016-11-26 00:55:00,1620E-3,5C000000,-0724,0833,12113,028.2,045.5,0.437,740.6,01.18,0.508
2016-11-26 00:56:00,1581E-3,5C000000,-0724,0833,12095,028.2,045.4,0.437,740.6,01.18,0.508
2016-11-26 00:57:00,1566E-3,5C000000,-0724,0833,12125,028.2,045.4,0.437,740.6,01.18,0.508
2016-11-26 00:58:00,1680E-3,5C000000,-0724,0833,12073,028.1,045.4,0.436,740.6,01.18,0.508
2016-11-26 00:59:00,1564E-3,5C000000,-0724,0834,12217,028.2,045.4,0.437,740.6,01.18,0.508
2016-11-26 01:00:00,1695E-3,5C000000,-0724,0833,12088,028.2,045.4,0.437,740.6,01.18,0.508
2016-11-26 01:01:00,1586E-3,5C000000,-0724,0833,12100,028.2,045.5,0.437,740.6,01.18,0.508
2016-11-26 01:02:00,1639E-3,5C000000,-0724,0833,12024,028.2,045.5,0.437,740.6,01.18,0.508
2016-11-26 01:03:00,1656E-3,5C000000,-0724,0833,12138,028.2,045.4,0.436,740.5,01.18,0.508
2016-11-26 01:04:00,1544E-3,5C000000,-0724,0833,11994,028.2,045.5,0.436,740.6,01.18,0.508
2016-11-26 01:05:00,1642E-3,5C000000,-0724,0834,12139,028.2,045.4,0.437,740.6,01.18,0.508
2016-11-26 01:06:00,1700E-3,5C000000,-0724,0833,12161,028.2,045.4,0.437,740.6,01.18,0.508
2016-11-26 01:07:00,1645E-3,5C000000,-0724,0834,12132,028.2,045.5,0.437,740.5,01.18,0.508
2016-11-26 01:08:00,1579E-3,5C000000,-0724,0834,12117,028.2,045.5,0.437,740.5,01.18,0.508
2016-11-26 01:09:00,1633E-3,5C000000,-0724,0833,12115,028.2,045.5,0.437,740.5,01.18,0.508
2016-11-26 01:10:00,1606E-3,5C000000,-0724,0833,12219,028.2,045.4,0.436,740.6,01.18,0.508
2016-11-26 01:11:00,1728E-3,5C000000,-0724,0834,12267,028.2,045.4,0.436,740.5,01.18,0.508
2016-11-26 01:12:00,1571E-3,5C000000,-0724,0834,12094,028.2,045.4,0.437,740.5,01.18,0.508
2016-11-26 01:13:00,1523E-3,5C000000,-0724,0834,12190,028.2,045.5,0.437,740.5,01.18,0.508
2016-11-26 01:14:00,1618E-3,5C000000,-0724,0832,12063,028.2,045.5,0.437,740.5,01.18,0.508
2016-11-26 01:15:00,1803E-3,5C000000,-0724,0833,12054,028.2,045.5,0.437,740.5,01.18,0.508
2016-11-26 01:16:00,1669E-3,5C000000,-0724,0832,12134,028.2,045.4,0.436,740.5,01.18,0.508
2016-11-26 01:17:00,1568E-3,5C000000,-0724,0834,12123,028.2,045.5,0.436,740.5,01.18,0.508
2016-11-26 01:18:00,1563E-3,5C000000,-0724,0833,12056,028.2,045.5,0.437,740.5,01.18,0.508
2016-11-26 01:19:00,1651E-3,5C000000,-0724,0833,12110,028.2,045.5,0.437,740.4,01.18,0.508
2016-11-26 01:20:00,1528E-3,5C000000,-0724,0833,12243,028.2,045.5,0.437,740.3,01.18,0.508
2016-11-26 01:21:00,1596E-3,5C000000,-0724,0834,12167,028.2,045.5,0.437,740.4,01.18,0.508
2016-11-26 01:22:00,1547E-3,5C000000,-0724,0833,12002,028.2,045.5,0.436,740.5,01.18,0.508
2016-11-26 01:23:00,1387E-3,5C000000,-0724,0833,12024,028.2,045.5,0.436,740.5,01.18,0.508
2016-11-26 01:24:00,1677E-3,5C000000,-0724,0834,12032,028.2,045.4,0.437,740.4,01.18,0.508
2016-11-26 01:25:00,1444E-3,5C000000,-0724,0833,12093,028.2,045.4,0.437,740.4,01.18,0.508
2016-11-26 01:26:00,1545E-3,5C000000,-0724,0834,12118,028.2,045.5,0.437,740.5,01.18,0.508
2016-11-26 01:27:00,1414E-3,5C000000,-0724,0833,12055,028.2,045.5,0.437,740.5,01.18,0.508
2016-11-26 01:28:00,1644E-3,5C000000,-0724,0833,12106,028.2,045.5,0.436,740.5,01.18,0.508
2016-11-26 01:29:00,1546E-3,5C000000,-0724,0834,12176,028.2,045.5,0.436,740.5,01.18,0.508
2016-11-26 01:30:00,1606E-3,5C000000,-0724,0833,12058,028.2,045.5,0.437,740.5,01.18,0.508
2016-11-26 01:31:00,1628E-3,5C000000,-0724,0833,11993,028.2,045.5,0.437,740.5,01.18,0.508
2016-11-26 01:32:00,1627E-3,5C000000,-0724,0833,12179,028.2,045.5,0.437,740.3,01.18,0.508
2016-11-26 01:33:00,1482E-3,5C000000,-0724,0834,12181,028.2,045.5,0.437,740.3,01.18,0.508
2016-11-26 01:34:00,1569E-3,5C000000,-0724,0833,11980,028.2,045.5,0.436,740.3,01.18,0.508
2016-11-26 01:35:00,1653E-3,5C000000,-0724,0833,12053,028.3,045.5,0.436,740.3,01.18,0.508
2016-11-26 01:36:00,1584E-3,5C000000,-0724,0833,12037,028.2,045.5,0.437,740.3,01.18,0.508
2016-11-26 01:37:00,1624E-3,5C000000,-0724,0833,12151,028.3,045.4,0.437,740.5,01.18,0.508
2016-11-26 01:38:00,1478E-3,5C000000,-0724,0833,12178,028.2,045.5,0.437,740.4,01.18,0.508
2016-11-26 01:39:00,1574E-3,5C000000,-0724,0833,12022,028.3,045.5,0.437,740.2,01.18,0.508
2016-11-26 01:40:00,1547E-3,5C000000,-0724,0833,12077,028.3,045.4,0.436,740.3,01.18,0.508
2016-11-26 01:41:00,1645E-3,5C000000,-0724,0834,12046,028.2,045.5,0.436,740.3,01.18,0.508
2016-11-26 01:42:00,1629E-3,5C000000,-0724,0833,12161,028.2,045.4,0.437,740.3,01.18,0.508
2016-11-26 01:43:00,1736E-3,5C000000,-0724,0833,12030,028.3,045.5,0.437,740.3,01.18,0.508
2016-11-26 01:44:00,1535E-3,5C000000,-0724,0833,12081,028.3,045.5,0.437,740.2,01.18,0.508
2016-11-26 01:45:00,1557E-3,5C000000,-0724,0834,12197,028.3,045.5,0.436,740.2,01.18,0.508
2016-11-26 01:46:00,1599E-3,5C000000,-0724,0833,12213,028.3,045.5,0.436,740.3,01.18,0.508
2016-11-26 01:47:00,1562E-3,5C000000,-0724,0833,12237,028.3,045.5,0.436,740.5,01.18,0.508
2016-11-26 01:48:00,1588E-3,5C000000,-0724,0833,12180,028.3,045.5,0.437,740.3,01.18,0.508
2016-11-26 01:49:00,1665E-3,5C000000,-0724,0833,12115,028.3,045.5,0.437,740.2,01.18,0.508
2016-11-26 01:50:00,1553E-3,5C000000,-0724,0834,12054,028.3,045.4,0.437,740.2,01.18,0.508
2016-11-26 01:51:00,1704E-3,5C000000,-0724,0833,12058,028.3,045.4,0.436,740.3,01.18,0.508
2016-11-26 01:52:00,1627E-3,5C000000,-0724,0834,12000,028.3,045.5,0.436,740.3,01.18,0.508
2016-11-26 01:53:00,1619E-3,5C000000,-0724,0833,12221,028.3,045.5,0.436,740.3,01.18,0.508
2016-11-26 01:54:00,1546E-3,5C000000,-0724,0833,12325,028.3,045.5,0.437,740.2,01.18,0.508
2016-11-26 01:55:00,1740E-3,5C000000,-0724,0833,12173,028.3,045.5,0.437,740.2,01.18,0.508
2016-11-26 01:56:00,1656E-3,5C000000,-0724,0833,12086,028.3,045.5,0.437,740.2,01.18,0.508
2016-11-26 01:57:00,1619E-3,5C000000,-0724,0833,12036,028.3,045.4,0.436,740.3,01.18,0.508
2016-11-26 01:58:00,1564E-3,5C000000,-0724,0833,12070,028.3,045.5,0.436,740.5,01.18,0.508
2016-11-26 01:59:00,1596E-3,5C000000,-0724,0833,12179,028.3,045.5,0.436,740.4,01.18,0.508
2016-11-26 02:00:00,1477E-3,5C000000,-0724,0834,12041,028.3,045.5,0.437,740.2,01.18,0.508
2016-11-26 02:01:00,1573E-3,5C000000,-0724,0834,12189,028.3,045.4,0.437,740.2,01.18,0.508
2016-11-26 02:02:00,1584E-3,5C000000,-0724,0833,12133,028.3,045.5,0.437,740.4,01.18,0.508
2016-11-26 02:03:00,1568E-3,5C000000,-0724,0833,12117,028.3,045.5,0.436,740.4,01.18,0.508
2016-11-26 02:04:00,1470E-3,5C000000,-0724,0833,12094,028.3,045.5,0.436,740.2,01.18,0.508
2016-11-26 02:05:00,1661E-3,5C000000,-0724,0833,12080,028.3,045.5,0.436,740.2,01.18,0.508
2016-11-26 02:06:00,1483E-3,5C000000,-0724,0833,12078,028.3,045.5,0.437,740.2,01.18,0.508
2016-11-26 02:07:00,1506E-3,5C000000,-0724,0833,12148,028.3,045.5,0.437,740.3,01.18,0.508
2016-11-26 02:08:00,1616E-3,5C000000,-0724,0834,12138,028.3,045.5,0.436,740.2,01.18,0.508
2016-11-26 02:09:00,1596E-3,5C000000,-0724,0833,12204,028.3,045.5,0.436,740.1,01.18,0.508
2016-11-26 02:10:00,1598E-3,5C000000,-0724,0833,12149,028.3,045.5,0.436,740.1,01.18,0.508
2016-11-26 02:11:00,1538E-3,5C000000,-0724,0833,12187,028.3,045.5,0.436,740.2,01.18,0.508
2016-11-26 02:12:00,1665E-3,5C000000,-0724,0833,12091,028.3,045.5,0.437,740.4,01.18,0.508
2016-11-26 02:13:00,1513E-3,5C000000,-0724,0834,12033,028.4,045.4,0.436,740.3,01.18,0.508
2016-11-26 02:14:00,1560E-3,5C000000,-0724,0833,12039,028.4,045.5,0.436,740.2,01.18,0.508
2016-11-26 02:15:00,1553E-3,5C000000,-0724,0833,12131,028.4,045.5,0.436,740.2,01.18,0.508
2016-11-26 02:16:00,1559E-3,5C000000,-0724,0833,12178,028.4,045.4,0.437,740.3,01.18,0.508
2016-11-26 02:17:00,1544E-3,5C000000,-0724,0833,12210,028.4,045.4,0.437,740.2,01.18,0.508
2016-11-26 02:18:00,1620E-3,5C000000,-0724,0832,12141,028.4,045.4,0.437,740.2,01.18,0.508
2016-11-26 02:19:00,1590E-3,5C000000,-0724,0833,12194,028.4,045.5,0.436,740.3,01.18,0.508
2016-11-26 02:20:00,1516E-3,5C000000,-0724,0834,12146,028.4,045.5,0.436,740.3,01.18,0.508
2016-11-26 02:21:00,1622E-3,5C000000,-0724,0833,12105,028.4,045.4,0.437,740.3,01.18,0.508
2016-11-26 02:22:00,1620E-3,5C000000,-0724,0833,12038,028.4,045.4,0.437,740.2,01.18,0.508
2016-11-26 02:23:00,1624E-3,5C000000,-0724,0833,12111,028.4,045.5,0.436,740.2,01.18,0.508
2016-11-26 02:24:00,1577E-3,5C000000,-0724,0833,12021,028.4,045.5,0.436,740.3,01.18,0.508
2016-11-26 02:25:00,1624E-3,5C000000,-0724,0833,12145,028.4,045.5,0.436,740.2,01.18,0.508
2016-11-26 02:26:00,1613E-3,5C000000,-0724,0833,12090,028.4,045.5,0.437,740.2,01.18,0.508
2016-11-26 02:27:00,1537E-3,5C000000,-0724,0833,12097,028.4,045.5,0.437,740.2,01.18,0.508
2016-11-26 02:28:00,1574E-3,5C000000,-0724,0833,12133,028.4,045.5,0.436,740.2,01.18,0.508
2016-11-26 02:29:00,1555E-3,5C000000,-0724,0833,12166,028.4,045.5,0.436,740.2,01.18,0.508
2016-11-26 02:30:00,1641E-3,5C000000,-0724,0833,12087,028.4,045.5,0.437,740.2,01.18,0.508
2016-11-26 02:31:00,1546E-3,5C000000,-0724,0833,12127,028.4,045.5,0.437,740.2,01.18,0.508
2016-11-26 02:32:00,1583E-3,5C000000,-0724,0833,12129,028.4,045.5,0.436,740.1,01.18,0.508
2016-11-26 02:33:00,1638E-3,5C000000,-0724,0834,12062,028.4,045.5,0.436,740.1,01.18,0.508
2016-11-26 02:34:00,1486E-3,5C000000,-0724,0833,12059,028.4,045.5,0.436,740.2,01.18,0.508
2016-11-26 02:35:00,1583E-3,5C000000,-0724,0833,12064,028.4,045.4,0.437,740.2,01.18,0.508
2016-11-26 02:36:00,1513E-3,5C000000,-0724,0833,12156,028.4,045.4,0.437,740.1,01.18,0.508
2016-11-26 02:37:00,1553E-3,5C000000,-0724,0833,12141,028.4,045.5,0.436,740.1,01.18,0.508
2016-11-26 02:38:00,1649E-3,5C000000,-0724,0833,12031,028.4,045.4,0.436,740.2,01.18,0.508
2016-11-26 02:39:00,1622E-3,5C000000,-0724,0833,12056,028.4,045.5,0.436,740.2,01.18,0.508
2016-11-26 02:40:00,1544E-3,5C000000,-0724,0833,12196,028.4,045.5,0.437,740.2,01.18,0.508
2016-11-26 02:41:00,1483E-3,5C000000,-0724,0833,12297,028.5,045.5,0.436,740.1,01.18,0.508
2016-11-26 02:42:00,1490E-3,5C000000,-0724,0833,12093,028.4,045.5,0.436,740.2,01.18,0.508
2016-11-26 02:43:00,1557E-3,5C000000,-0724,0834,12127,028.4,045.5,0.436,740.2,01.18,0.508
2016-11-26 02:44:00,1590E-3,5C000000,-0724,0833,12092,028.4,045.5,0.436,740.2,01.18,0.508
2016-11-26 02:45:00,1509E-3,5C000000,-0724,0833,12205,028.5,045.5,0.437,740.3,01.18,0.508
2016-11-26 02:46:00,1487E-3,5C000000,-0724,0833,12042,028.4,045.5,0.436,740.3,01.18,0.508
2016-11-26 02:47:00,1587E-3,5C000000,-0724,0833,12202,028.5,045.5,0.436,740.2,01.18,0.508
2016-11-26 02:48:00,1623E-3,5C000000,-0724,0833,12014,028.4,045.4,0.436,740.2,01.18,0.508
2016-11-26 02:49:00,1471E-3,5C000000,-0724,0832,12122,028.5,045.5,0.437,740.2,01.18,0.508
2016-11-26 02:50:00,1556E-3,5C000000,-0724,0833,12217,028.5,045.5,0.436,740.2,01.18,0.508
2016-11-26 02:51:00,1571E-3,5C000000,-0724,0833,12073,028.5,045.5,0.436,740.2,01.18,0.508
2016-11-26 02:52:00,1431E-3,5C000000,-0724,0833,12127,028.5,045.5,0.436,740.3,01.18,0.508
2016-11-26 02:53:00,1691E-3,5C000000,-0724,0833,12051,028.5,045.5,0.436,740.5,01.18,0.508
2016-11-26 02:54:00,1649E-3,5C000000,-0724,0833,12081,028.5,045.5,0.437,740.5,01.18,0.508
2016-11-26 02:55:00,1625E-3,5C000000,-0724,0833,12157,028.5,045.5,0.436,740.4,01.18,0.508
2016-11-26 02:56:00,1667E-3,5C000000,-0724,0833,12290,028.5,045.4,0.436,740.4,01.18,0.508
2016-11-26 02:57:00,1667E-3,5C000000,-0724,0834,12214,028.5,045.5,0.436,740.4,01.18,0.508
2016-11-26 02:58:00,1583E-3,5C000000,-0724,0833,12008,028.5,045.5,0.436,740.3,01.18,0.508
2016-11-26 02:59:00,1656E-3,5C000000,-0724,0833,12043,028.5,045.5,0.437,740.3,01.18,0.508
2016-11-26 03:00:00,1574E-3,5C000000,-0724,0833,12076,028.5,045.5,0.436,740.3,01.18,0.508
2016-11-26 03:01:00,1474E-3,5C000000,-0724,0834,12034,028.5,045.5,0.436,740.4,01.18,0.508
2016-11-26 03:02:00,1513E-3,5C000000,-0724,0833,12043,028.5,045.5,0.436,740.5,01.18,0.508
2016-11-26 03:03:00,1545E-3,5C000000,-0724,0832,12147,028.5,045.5,0.436,740.5,01.18,0.508
2016-11-26 03:04:00,1670E-3,5C000000,-0724,0833,12046,028.5,045.5,0.436,740.3,01.18,0.508
2016-11-26 03:05:00,1532E-3,5C000000,-0724,0833,12185,028.5,045.5,0.436,740.3,01.18,0.508
2016-11-26 03:06:00,1596E-3,5C000000,-0724,0833,12099,028.5,045.5,0.436,740.3,01.18,0.508
2016-11-26 03:07:00,1568E-3,5C000000,-0724,0833,12174,028.5,045.5,0.436,740.4,01.18,0.508
2016-11-26 03:08:00,1579E-3,5C000000,-0724,0833,12109,028.5,045.5,0.437,740.3,01.18,0.508
2016-11-26 03:09:00,1652E-3,5C000000,-0724,0833,12008,028.5,045.5,0.436,740.4,01.18,0.508
2016-11-26 03:10:00,1556E-3,5C000000,-0724,0833,12108,028.5,045.5,0.436,740.4,01.18,0.508
2016-11-26 03:11:00,1591E-3,5C000000,-0724,0833,12054,028.5,045.5,0.436,740.3,01.18,0.508
2016-11-26 03:12:00,1540E-3,5C000000,-0724,0833,12088,028.5,045.5,0.436,740.3,01.18,0.508
2016-11-26 03:13:00,1525E-3,5C000000,-0724,0834,12203,028.5,045.5,0.436,740.3,01.18,0.508
2016-11-26 03:14:00,1594E-3,5C000000,-0724,0834,12142,028.5,045.5,0.436,740.3,01.18,0.508
2016-11-26 03:15:00,1577E-3,5C000000,-0724,0833,12156,028.5,045.5,0.436,740.3,01.18,0.508
2016-11-26 03:16:00,1584E-3,5C000000,-0724,0833,12157,028.5,045.5,0.436,740.2,01.18,0.508
2016-11-26 03:17:00,1604E-3,5C000000,-0724,0833,12021,028.5,045.5,0.436,740.2,01.18,0.508
2016-11-26 03:18:00,1608E-3,5C000000,-0724,0833,12119,028.5,045.5,0.436,740.3,01.18,0.508
2016-11-26 03:19:00,1504E-3,5C000000,-0724,0834,12086,028.5,045.5,0.436,740.2,01.18,0.508
2016-11-26 03:20:00,1591E-3,5C000000,-0724,0834,12023,028.5,045.5,0.436,740.2,01.18,0.508
2016-11-26 03:21:00,1511E-3,5C000000,-0724,0833,12224,028.6,045.5,0.436,740.2,01.18,0.508
2016-11-26 03:22:00,1598E-3,5C000000,-0724,0833,12102,028.5,045.5,0.436,740.3,01.18,0.508
2016-11-26 03:23:00,1528E-3,5C000000,-0724,0833,12078,028.6,045.5,0.436,740.3,01.18,0.508
2016-11-26 03:24:00,1555E-3,5C000000,-0724,0833,12017,028.6,045.5,0.436,740.2,01.18,0.508
2016-11-26 03:25:00,1545E-3,5C000000,-0724,0834,12207,028.6,045.5,0.436,740.2,01.18,0.508
2016-11-26 03:26:00,1745E-3,5C000000,-0724,0833,12041,028.6,045.5,0.436,740.5,01.18,0.508
2016-11-26 03:27:00,1648E-3,5C000000,-0724,0833,11867,028.6,045.4,0.436,740.5,01.18,0.508
2016-11-26 03:28:00,1571E-3,5C000000,-0724,0833,12091,028.6,045.4,0.436,740.5,01.18,0.508
2016-11-26 03:29:00,1706E-3,5C000000,-0724,0834,12125,028.6,045.5,0.436,740.5,01.18,0.508
2016-11-26 03:30:00,1659E-3,5C000000,-0724,0833,12116,028.6,045.5,0.436,740.5,01.18,0.508
2016-11-26 03:31:00,1547E-3,5C000000,-0724,0834,12082,028.6,045.5,0.436,740.4,01.18,0.508
2016-11-26 03:32:00,1605E-3,5C000000,-0724,0834,12220,028.6,045.5,0.436,740.5,01.18,0.508
2016-11-26 03:33:00,1505E-3,5C000000,-0724,0833,12076,028.6,045.5,0.436,740.6,01.18,0.508
2016-11-26 03:34:00,1585E-3,5C000000,-0724,0833,12050,028.6,045.5,0.436,740.5,01.18,0.508
2016-11-26 03:35:00,1588E-3,5C000000,-0724,0833,12204,028.6,045.5,0.436,740.5,01.18,0.508
2016-11-26 03:36:00,1566E-3,5C000000,-0724,0833,12009,028.6,045.5,0.436,740.5,01.18,0.508
2016-11-26 03:37:00,1662E-3,5C000000,-0724,0833,12107,028.6,045.5,0.436,740.5,01.18,0.508
2016-11-26 03:38:00,1592E-3,5C000000,-0724,0834,12176,028.6,045.5,0.436,740.5,01.18,0.508
2016-11-26 03:39:00,1461E-3,5C000000,-0724,0833,12062,028.6,045.5,0.435,740.5,01.18,0.508
2016-11-26 03:40:00,1523E-3,5C000000,-0724,0833,12050,028.6,045.5,0.436,740.5,01.18,0.508
2016-11-26 03:41:00,1626E-3,5C000000,-0724,0833,12133,028.6,045.5,0.436,740.4,01.18,0.508
2016-11-26 03:42:00,1527E-3,5C000000,-0724,0834,12105,028.6,045.5,0.436,740.5,01.18,0.508
2016-11-26 03:43:00,1628E-3,5C000000,-0724,0833,12107,028.6,045.5,0.436,740.5,01.18,0.508
2016-11-26 03:44:00,1533E-3,5C000000,-0724,0833,12112,028.6,045.5,0.436,740.5,01.18,0.508
2016-11-26 03:45:00,1624E-3,5C000000,-0724,0833,12140,028.6,045.4,0.436,740.5,01.18,0.508
2016-11-26 03:46:00,1598E-3,5C000000,-0724,0833,12260,028.6,045.5,0.436,740.5,01.18,0.508
2016-11-26 03:47:00,1589E-3,5C000000,-0724,0833,11961,028.6,045.5,0.436,740.5,01.18,0.508
2016-11-26 03:48:00,1666E-3,5C000000,-0724,0833,12036,028.6,045.5,0.436,740.5,01.18,0.508
2016-11-26 03:49:00,1586E-3,5C000000,-0724,0834,12221,028.6,045.5,0.436,740.5,01.18,0.508
2016-11-26 03:50:00,1468E-3,5C000000,-0724,0833,12067,028.6,045.5,0.436,740.3,01.18,0.508
2016-11-26 03:51:00,1509E-3,5C000000,-0724,0833,11951,028.6,045.5,0.436,740.4,01.18,0.508
2016-11-26 03:52:00,1607E-3,5C000000,-0724,0833,12071,028.6,045.5,0.436,740.5,01.18,0.508
2016-11-26 03:53:00,1643E-3,5C000000,-0724,0834,12020,028.6,045.5,0.435,740.5,01.18,0.508
2016-11-26 03:54:00,1627E-3,5C000000,-0724,0834,12123,028.6,045.5,0.436,740.5,01.18,0.508
2016-11-26 03:55:00,1661E-3,5C000000,-0724,0833,12214,028.6,045.5,0.436,740.5,01.18,0.508
2016-11-26 03:56:00,1517E-3,5C000000,-0724,0833,12117,028.6,045.5,0.436,740.5,01.18,0.508
2016-11-26 03:57:00,1485E-3,5C000000,-0724,0833,12168,028.6,045.5,0.435,740.5,01.18,0.508
2016-11-26 03:58:00,1541E-3,5C000000,-0724,0833,11994,028.6,045.5,0.436,740.3,01.18,0.508
2016-11-26 03:59:00,1543E-3,5C000000,-0724,0834,12102,028.6,045.5,0.436,740.4,01.18,0.508
2016-11-26 04:00:00,1747E-3,5C000000,-0724,0833,12228,028.6,045.5,0.436,740.5,01.18,0.508
2016-11-26 04:01:00,1597E-3,5C000000,-0724,0833,12167,028.7,045.5,0.435,740.3,01.18,0.508
2016-11-26 04:02:00,1683E-3,5C000000,-0724,0834,12250,028.6,045.5,0.436,740.3,01.18,0.508
2016-11-26 04:03:00,1686E-3,5C000000,-0724,0833,12159,028.6,045.5,0.436,740.5,01.18,0.508
2016-11-26 04:04:00,1635E-3,5C000000,-0724,0834,11935,028.6,045.5,0.436,740.4,01.18,0.508
2016-11-26 04:05:00,1661E-3,5C000000,-0724,0833,12013,028.6,045.5,0.436,740.4,01.18,0.508
2016-11-26 04:06:00,1709E-3,5C000000,-0724,0834,12063,028.7,045.5,0.435,740.4,01.18,0.508
2016-11-26 04:07:00,1511E-3,5C000000,-0724,0834,12124,028.7,045.5,0.436,740.4,01.18,0.508
2016-11-26 04:08:00,1585E-3,5C000000,-0724,0834,12027,028.7,045.5,0.436,740.4,01.18,0.508
2016-11-26 04:09:00,1463E-3,5C000000,-0724,0833,12079,028.6,045.5,0.436,740.4,01.18,0.508
2016-11-26 04:10:00,1591E-3,5C000000,-0724,0833,12144,028.7,045.5,0.435,740.4,01.18,0.508
2016-11-26 04:11:00,1521E-3,5C000000,-0724,0833,12128,028.7,045.5,0.436,740.5,01.18,0.508
2016-11-26 04:12:00,1522E-3,5C000000,-0724,0833,12038,028.7,045.5,0.436,740.5,01.18,0.508
2016-11-26 04:13:00,1565E-3,5C000000,-0724,0834,12150,028.7,045.5,0.436,740.5,01.18,0.508
2016-11-26 04:14:00,1608E-3,5C000000,-0724,0834,12227,028.7,045.5,0.435,740.6,01.18,0.508
2016-11-26 04:15:00,1607E-3,5C000000,-0724,0833,12240,028.7,045.5,0.436,740.5,01.18,0.508
2016-11-26 04:16:00,1639E-3,5C000000,-0724,0834,12037,028.7,045.5,0.436,740.5,01.18,0.508
2016-11-26 04:17:00,1613E-3,5C000000,-0724,0834,12002,028.7,045.5,0.436,740.5,01.18,0.508
2016-11-26 04:18:00,1467E-3,5C000000,-0724,0833,12002,028.7,045.5,0.436,740.5,01.18,0.508
2016-11-26 04:19:00,1493E-3,5C000000,-0724,0834,11963,028.7,045.5,0.436,740.5,01.18,0.508
2016-11-26 04:20:00,1681E-3,5C000000,-0724,0833,11976,028.7,045.5,0.436,740.5,01.18,0.508